Regional Weather Roundup
Issued by NWS

Home | Current Version | Previous Version | Graphics & Text | Print | Product List | Glossary On
Versions: 1 2 3 4 5 6 7 8 9 10 11 12 13 14 15 16 17 18 19 20 21 22 23 24 25 26 27 28 29 30 31 32 33 34 35 36 37 38 39 40 41 42 43 44 45 46 47 48 49 50
000
ASUS45 KCYS 012110
RWRWY

WYOMING REGIONAL WEATHER ROUNDUP
NATIONAL WEATHER SERVICE CHEYENNE WY
300 PM MDT TUE SEP 01 2015

NOTE:  "FAIR" INDICATES FEW OR NO CLOUDS BELOW 12,000 FEET
WITH NO SIGNIFICANT WEATHER AND/OR OBSTRUCTIONS TO VISIBILITY.

WYZ001-012200-
YELLOWSTONE NATIONAL PARK

CITY           SKY/WX    TMP DP  RH WIND       PRES   REMARKS
LK YELLOWSTONE   N/A     71  25  17 W9G25     30.18S
W YELLOWSTONE  NOT AVBL

$$
WYZ002>013-054>058-071-098>099-012200-
NORTHERN WYOMING

CITY           SKY/WX    TMP DP  RH WIND       PRES   REMARKS
JACKSON        FAIR      81  36  19 S17G23    30.07S
CODY           FAIR      84  28  13 SE16      29.90F
GREYBULL       FAIR      92  24   8 S8        29.84F
WORLAND        FAIR      92  27   9 MISG      29.85F
SHERIDAN       FAIR      92  26   9 E5        29.85F
BUFFALO        FAIR      90  27  10 E5        29.93F
GILLETTE       FAIR      90  29  11 NW12      29.91S
HULETT         FAIR      88  34  14 NW6       29.91F
NEWCASTLE        N/A     88  30  12 S5        29.92S

$$
WYZ014>020-022>026-101>103-012200-
CENTRAL WYOMING

CITY           SKY/WX    TMP DP  RH WIND       PRES   REMARKS
BIG PINEY      FAIR      82  27  13 NW12G26   30.13S
PINEDALE       MOCLDY    73  34  23 NW12      30.13F
DUBOIS         FAIR      75  25  15 W17G30    30.11S
LANDER         FAIR      87  31  13 SW12      29.96F
RIVERTON       FAIR      88  32  13 SW10      29.97F
CASPER         FAIR      89  27  10 W16G23    29.98F
DOUGLAS        FAIR      91  27  10 W18G24    29.97F

$$
WYZ021-027>030-104>119-012200-
SOUTHERN WYOMING

CITY           SKY/WX    TMP DP  RH WIND       PRES   REMARKS
EVANSTON       PTSUNNY   79  38  22 S10G17    30.16F
KEMMERER       FAIR      77  28  16 SW21G30   30.16F
FORT BRIDGER   PTCLDY    82  34  17 W24G31    30.19R
ROCK SPRINGS   LGT RAIN  71  44  37 SW14G24   30.15R
DIXON          FAIR      83  39  20 W5        30.17F
RAWLINS        FAIR      83  34  17 SW8G21    30.14F
SARATOGA       MOCLDY    81  37  21 SW12G21   30.19S
LARAMIE        PTSUNNY   78  33  19 N12       30.19S
CHEYENNE       FAIR      84  31  14 N12G23    30.09F
TORRINGTON     FAIR      93  33  12 SW8       29.92F
PINE BLUFFS    FAIR      88  32  13 NW14      30.02F

$$


USA.gov is the U.S. government's official web portal to all federal, state and local government web resources and services.